Regional Weather Roundup
Issued by NWS

Home | Current Version | Previous Version | Graphics & Text | Print | Product List | Glossary On
Versions: 1 2 3 4 5 6 7 8 9 10 11 12 13 14 15 16 17 18 19 20 21 22 23 24 25 26 27 28
000
ASUS45 KCYS 210410
RWRWY

WYOMING REGIONAL WEATHER ROUNDUP
NATIONAL WEATHER SERVICE CHEYENNE WY
900 PM MST MON NOV 20 2017

NOTE:  "FAIR" INDICATES FEW OR NO CLOUDS BELOW 12,000 FEET
WITH NO SIGNIFICANT WEATHER AND/OR OBSTRUCTIONS TO VISIBILITY.

WYZ001-210500-
YELLOWSTONE NATIONAL PARK

CITY           SKY/WX    TMP DP  RH WIND       PRES   REMARKS
LK YELLOWSTONE   N/A     30  27  88 W7        29.99S WCI  23
W YELLOWSTONE  NOT AVBL

$$
WYZ002>013-054>058-071-098>099-210500-
NORTHERN WYOMING

CITY           SKY/WX    TMP DP  RH WIND       PRES   REMARKS
JACKSON        LGT SNOW  32  30  93 SW7       30.03S FOG     WCI  26
CODY           FAIR      41  28  60 NE14      29.84S
GREYBULL       CLOUDY    43  35  73 E5        29.83R
WORLAND        FAIR      31  28  89 S8        29.84R WCI  23
SHERIDAN       CLOUDY    44  36  73 N5        29.83R
BUFFALO        FAIR      43  29  57 NW6       29.81R
GILLETTE       CLOUDY    38  25  59 NW5       29.77S WCI  34
HULETT         FLURRIES  39  28  65 NE5       29.80F
NEWCASTLE      FAIR      36  23  60 N12       29.76S WCI  27

$$
WYZ014>020-022>026-101>103-210500-
CENTRAL WYOMING

CITY           SKY/WX    TMP DP  RH WIND       PRES   REMARKS
BIG PINEY      CLOUDY    34  28  79 W5        30.06R WCI  30
PINEDALE       LGT SNOW  32  32 100 E3        30.08R
DUBOIS         LGT SNOW  32  28  86 N15G22    29.94R WCI  22
LANDER         FAIR      38  24  57 SE13      29.89R WCI  30
RIVERTON       FAIR      41  28  60 NW7       29.89R
CASPER         FAIR      42  24  49 SW21      29.85S
DOUGLAS        FAIR      47  26  44 W22G31    29.81S

$$
WYZ021-027>030-104>119-210500-
SOUTHERN WYOMING

CITY           SKY/WX    TMP DP  RH WIND       PRES   REMARKS
EVANSTON       MOCLDY    39  31  72 SW17      30.13F WCI  30
KEMMERER       LGT SNOW  34  32  93 W20G25    30.10R WCI  22
FORT BRIDGER   CLOUDY    39  32  76 W18G26    30.14R WCI  29
ROCK SPRINGS   FAIR      37  27  67 W25G33    30.07R WCI  25
DIXON          CLOUDY    35  23  60 W3        30.13S
RAWLINS        FLURRIES  38  27  64 W33G46    29.98R WCI  25
SARATOGA       MOCLDY    36  23  60 SW16G23   30.03F WCI  26
LARAMIE        CLOUDY    40  10  29 SW12      29.96F WCI  33
CHEYENNE       FAIR      48   7  18 W18G30    29.88S
TORRINGTON     MOCLDY    54  24  31 W17G31    29.77R
PINE BLUFFS    FAIR      50  10  20 W14G21    29.86F

$$




USA.gov is the U.S. government's official web portal to all federal, state and local government web resources and services.